Location: Baix
(44.7118°N, 4.7648°E)
Time: 10:48:42
(UTC+00:00)

Vanguard 2 Rocket - Pass Details

Date: 02 December 2020
Orbit: 554 x 3325 km, 32.9° (Epoch: 21 January)

Event Time Altitude Azimuth Distance (km) Brightness Sun altitude
Rises 12:16:56 0° 277° (W) 7,175 11.5 22.4°
Reaches altitude 10° 12:22:58 10° 269° (W) 5,902 11.3 22.2°
Maximum altitude 12:36:22 29° 219° (SW) 3,606 11.5 21.6°
Drops below altitude 10° 12:45:36 10° 164° (SSE) 3,997 11.2 21.1°
Sets 12:48:48 0° 153° (SSE) 4,616 11.2 20.9°
